Time,TemperatureF,DewpointF,PressureIn,WindDirection,WindDirectionDegrees,WindSpeedMPH,WindSpeedGustMPH,Humidity,HourlyPrecipIn,Conditions,Clouds,dailyrainin,SoftwareType,DateUTC
2013-10-12 00:01:00,52.8,45.1,30.07,NE,45,0.0,0.0,75,0.00,,---,0.00,VWS V14.01,2013-10-12 04:01:00,
2013-10-12 00:02:00,52.7,45.0,30.08,NE,45,0.0,0.0,75,0.00,,---,0.00,VWS V14.01,2013-10-12 04:02:00,
2013-10-12 00:03:00,52.7,45.0,30.07,NE,45,0.0,0.0,75,0.00,,---,0.00,VWS V14.01,2013-10-12 04:03:00,
2013-10-12 00:06:00,52.5,44.5,30.07,NE,45,0.0,0.0,74,0.00,,---,0.00,VWS V14.01,2013-10-12 04:06:00,
2013-10-12 00:07:00,52.5,44.5,30.07,NE,45,0.0,0.0,74,0.00,,---,0.00,VWS V14.01,2013-10-12 04:07:00,
2013-10-12 00:12:00,52.5,44.5,30.08,NE,45,0.0,0.0,74,0.00,,---,0.00,VWS V14.01,2013-10-12 04:12:00,
2013-10-12 00:17:00,52.7,44.7,30.07,South,180,0.0,0.0,74,0.00,,---,0.00,VWS V14.01,2013-10-12 04:17:00,
2013-10-12 00:22:00,52.8,44.4,30.07,South,180,0.0,0.0,73,0.00,,---,0.00,VWS V14.01,2013-10-12 04:22:00,
2013-10-12 00:23:00,52.8,44.4,30.06,South,180,0.0,0.0,73,0.00,,---,0.00,VWS V14.01,2013-10-12 04:23:00,
2013-10-12 00:28:00,52.8,44.4,30.06,South,180,0.0,0.0,73,0.00,,---,0.00,VWS V14.01,2013-10-12 04:28:00,
2013-10-12 00:33:00,53.2,44.8,30.07,South,180,0.0,0.0,73,0.00,,---,0.00,VWS V14.01,2013-10-12 04:33:00,
2013-10-12 00:38:00,53.2,44.8,30.06,South,180,0.0,0.0,73,0.00,,---,0.00,VWS V14.01,2013-10-12 04:38:00,
2013-10-12 00:43:00,53.2,44.8,30.06,South,180,0.0,0.0,73,0.00,,---,0.00,VWS V14.01,2013-10-12 04:43:00,
2013-10-12 00:48:00,53.4,45.0,30.06,South,180,0.0,0.0,73,0.00,,---,0.00,VWS V14.01,2013-10-12 04:48:00,
2013-10-12 00:53:00,53.2,44.4,30.06,South,180,0.0,0.0,72,0.00,,---,0.00,VWS V14.01,2013-10-12 04:53:00,
2013-10-12 00:58:00,53.2,44.4,30.07,South,180,0.0,0.0,72,0.00,,---,0.00,VWS V14.01,2013-10-12 04:58:00,
2013-10-12 01:03:00,53.2,-6.9,30.07,South,180,0.0,0.0,72,0.00,,---,0.00,VWS V14.01,2013-10-12 05:03:00,
2013-10-12 01:09:00,53.2,-6.9,30.07,South,180,0.0,0.0,72,0.00,,---,0.00,VWS V14.01,2013-10-12 05:09:00,
2013-10-12 01:14:00,52.8,44.4,30.07,South,180,0.0,0.0,73,0.00,,---,0.00,VWS V14.01,2013-10-12 05:14:00,
2013-10-12 01:19:00,52.5,44.1,30.07,South,180,0.0,0.0,73,0.00,,---,0.00,VWS V14.01,2013-10-12 05:19:00,
2013-10-12 01:24:00,52.3,43.9,30.07,South,180,0.0,0.0,73,0.00,,---,0.00,VWS V14.01,2013-10-12 05:24:00,
2013-10-12 01:29:00,52.3,43.9,30.07,South,180,0.0,0.0,73,0.00,,---,0.00,VWS V14.01,2013-10-12 05:29:00,
2013-10-12 01:34:00,51.9,43.5,30.07,South,180,0.0,0.0,73,0.00,,---,0.00,VWS V14.01,2013-10-12 05:34:00,
2013-10-12 01:39:00,51.8,43.4,30.07,South,180,0.0,0.0,73,0.00,,---,0.00,VWS V14.01,2013-10-12 05:39:00,
2013-10-12 01:44:00,51.6,43.6,30.07,South,180,0.0,0.0,74,0.00,,---,0.00,VWS V14.01,2013-10-12 05:44:00,
2013-10-12 01:49:00,51.0,43.0,30.07,South,180,0.0,0.0,74,0.00,,---,0.00,VWS V14.01,2013-10-12 05:49:00,
2013-10-12 01:54:00,50.7,42.7,30.07,South,180,0.0,0.0,74,0.00,,---,0.00,VWS V14.01,2013-10-12 05:54:00,
2013-10-12 01:59:00,50.7,42.7,30.07,South,180,0.0,0.0,74,0.00,,---,0.00,VWS V14.01,2013-10-12 05:59:00,
2013-10-12 02:04:00,50.3,42.3,30.07,South,180,0.0,0.0,74,0.00,,---,0.00,VWS V14.01,2013-10-12 06:04:00,
2013-10-12 02:09:00,50.1,42.5,30.07,South,180,0.0,0.0,75,0.00,,---,0.00,VWS V14.01,2013-10-12 06:09:00,
2013-10-12 02:14:00,49.8,42.2,30.07,South,180,0.0,0.0,75,0.00,,---,0.00,VWS V14.01,2013-10-12 06:14:00,
2013-10-12 02:19:00,49.8,42.2,30.07,South,180,0.0,0.0,75,0.00,,---,0.00,VWS V14.01,2013-10-12 06:19:00,
2013-10-12 02:24:00,49.6,42.0,30.07,South,180,0.0,0.0,75,0.00,,---,0.00,VWS V14.01,2013-10-12 06:24:00,
2013-10-12 02:29:00,49.4,42.2,30.07,South,180,0.0,0.0,76,0.00,,---,0.00,VWS V14.01,2013-10-12 06:29:00,
2013-10-12 02:34:00,49.1,41.9,30.07,South,180,0.0,0.0,76,0.00,,---,0.00,VWS V14.01,2013-10-12 06:34:00,
2013-10-12 02:39:00,49.1,42.2,30.07,South,180,0.0,0.0,77,0.00,,---,0.00,VWS V14.01,2013-10-12 06:39:00,
2013-10-12 02:44:00,48.9,42.0,30.07,South,180,0.0,0.0,77,0.00,,---,0.00,VWS V14.01,2013-10-12 06:44:00,
2013-10-12 02:50:00,48.7,41.8,30.07,South,180,0.0,0.0,77,0.00,,---,0.00,VWS V14.01,2013-10-12 06:50:00,
2013-10-12 02:55:00,48.7,42.2,30.08,South,180,0.0,0.0,78,0.00,,---,0.00,VWS V14.01,2013-10-12 06:55:00,
2013-10-12 03:00:00,48.5,42.0,30.07,South,180,0.0,0.0,78,0.00,,---,0.00,VWS V14.01,2013-10-12 07:00:00,
2013-10-12 03:06:00,48.5,-5.2,30.07,South,180,0.0,0.0,78,0.00,,---,0.00,VWS V14.01,2013-10-12 07:06:00,
2013-10-12 03:11:00,48.3,42.1,30.07,South,180,0.0,0.0,79,0.00,,---,0.00,VWS V14.01,2013-10-12 07:11:00,
2013-10-12 03:16:00,48.3,42.1,30.07,South,180,0.0,0.0,79,0.00,,---,0.00,VWS V14.01,2013-10-12 07:16:00,
2013-10-12 03:21:00,48.2,42.0,30.07,South,180,0.0,0.0,79,0.00,,---,0.00,VWS V14.01,2013-10-12 07:21:00,
2013-10-12 03:26:00,48.2,42.0,30.07,South,180,0.0,0.0,79,0.00,,---,0.00,VWS V14.01,2013-10-12 07:26:00,
2013-10-12 03:31:00,48.2,42.0,30.07,South,180,0.0,0.0,79,0.00,,---,0.00,VWS V14.01,2013-10-12 07:31:00,
2013-10-12 03:36:00,48.0,41.8,30.07,SSE,158,0.0,0.0,79,0.00,,---,0.00,VWS V14.01,2013-10-12 07:36:00,
2013-10-12 03:41:00,47.8,41.9,30.08,SSE,158,0.0,0.0,80,0.00,,---,0.00,VWS V14.01,2013-10-12 07:41:00,
2013-10-12 03:46:00,47.8,41.9,30.08,SSE,158,0.0,0.0,80,0.00,,---,0.00,VWS V14.01,2013-10-12 07:46:00,
2013-10-12 03:51:00,47.6,41.8,30.08,SSE,158,0.0,0.0,80,0.00,,---,0.00,VWS V14.01,2013-10-12 07:51:00,
2013-10-12 03:56:00,47.4,41.5,30.07,SSE,158,0.0,0.0,80,0.00,,---,0.00,VWS V14.01,2013-10-12 07:56:00,
2013-10-12 04:01:00,47.3,41.5,30.08,SSE,158,0.0,0.0,80,0.00,,---,0.00,VWS V14.01,2013-10-12 08:01:00,
2013-10-12 04:07:00,47.3,-4.7,30.08,SSE,158,0.0,0.0,80,0.00,,---,0.00,VWS V14.01,2013-10-12 08:07:00,
2013-10-12 04:12:00,47.1,41.3,30.08,SSE,158,0.0,0.0,80,0.00,,---,0.00,VWS V14.01,2013-10-12 08:12:00,
2013-10-12 04:17:00,46.9,41.1,30.08,SSE,158,0.0,0.0,80,0.00,,---,0.00,VWS V14.01,2013-10-12 08:17:00,
2013-10-12 04:22:00,46.9,41.1,30.08,SSE,158,0.0,0.0,80,0.00,,---,0.00,VWS V14.01,2013-10-12 08:22:00,
2013-10-12 04:27:00,46.7,41.2,30.08,SSE,158,0.0,0.0,81,0.00,,---,0.00,VWS V14.01,2013-10-12 08:27:00,
2013-10-12 04:32:00,46.5,41.0,30.08,SSE,158,0.0,0.0,81,0.00,,---,0.00,VWS V14.01,2013-10-12 08:32:00,
2013-10-12 04:37:00,46.5,41.0,30.08,SSE,158,0.0,0.0,81,0.00,,---,0.00,VWS V14.01,2013-10-12 08:37:00,
2013-10-12 04:42:00,46.2,40.7,30.08,SSE,158,0.0,0.0,81,0.00,,---,0.00,VWS V14.01,2013-10-12 08:42:00,
2013-10-12 04:47:00,46.2,41.0,30.08,SSE,158,0.0,0.0,82,0.00,,---,0.00,VWS V14.01,2013-10-12 08:47:00,
2013-10-12 04:52:00,46.2,41.0,30.08,SSE,158,0.0,0.0,82,0.00,,---,0.00,VWS V14.01,2013-10-12 08:52:00,
2013-10-12 04:57:00,46.0,40.8,30.08,SSE,158,0.0,0.0,82,0.00,,---,0.00,VWS V14.01,2013-10-12 08:57:00,
2013-10-12 05:02:00,46.0,40.8,30.08,SSE,158,0.0,0.0,82,0.00,,---,0.00,VWS V14.01,2013-10-12 09:02:00,
2013-10-12 05:07:00,46.0,40.8,30.08,SSE,158,0.0,0.0,82,0.00,,---,0.00,VWS V14.01,2013-10-12 09:07:00,
2013-10-12 05:12:00,46.0,40.8,30.08,SSE,158,0.0,0.0,82,0.00,,---,0.00,VWS V14.01,2013-10-12 09:12:00,
2013-10-12 05:17:00,45.6,40.4,30.08,SSE,158,0.0,0.0,82,0.00,,---,0.00,VWS V14.01,2013-10-12 09:17:00,
2013-10-12 05:22:00,45.8,40.6,30.08,SSE,158,0.0,0.0,82,0.00,,---,0.00,VWS V14.01,2013-10-12 09:22:00,
2013-10-12 05:27:00,45.6,40.7,30.08,SSE,158,0.0,0.0,83,0.00,,---,0.00,VWS V14.01,2013-10-12 09:27:00,
2013-10-12 05:32:00,45.6,40.7,30.08,SSE,158,0.0,0.0,83,0.00,,---,0.00,VWS V14.01,2013-10-12 09:32:00,
2013-10-12 05:37:00,45.6,40.7,30.08,SSE,158,0.0,0.0,83,0.00,,---,0.00,VWS V14.01,2013-10-12 09:37:00,
2013-10-12 05:42:00,45.8,40.9,30.08,SSE,158,0.0,0.0,83,0.00,,---,0.00,VWS V14.01,2013-10-12 09:42:00,
2013-10-12 05:47:00,46.0,41.1,30.08,SSE,158,0.0,0.0,83,0.00,,---,0.00,VWS V14.01,2013-10-12 09:47:00,
2013-10-12 05:52:00,46.0,41.1,30.08,SSE,158,0.0,0.0,83,0.00,,---,0.00,VWS V14.01,2013-10-12 09:52:00,
2013-10-12 05:57:00,46.0,41.1,30.08,SSE,158,0.0,0.0,83,0.00,,---,0.00,VWS V14.01,2013-10-12 09:57:00,
2013-10-12 06:02:00,46.0,41.1,30.08,SSE,158,0.0,0.0,83,0.00,,---,0.00,VWS V14.01,2013-10-12 10:02:00,
2013-10-12 06:07:00,46.0,41.1,30.08,SSE,158,0.0,0.0,83,0.00,,---,0.00,VWS V14.01,2013-10-12 10:07:00,
2013-10-12 06:12:00,46.0,41.1,30.08,SSE,158,0.0,0.0,83,0.00,,---,0.00,VWS V14.01,2013-10-12 10:12:00,
2013-10-12 06:17:00,46.0,41.1,30.08,SSE,158,0.0,0.0,83,0.00,,---,0.00,VWS V14.01,2013-10-12 10:17:00,
2013-10-12 06:22:00,46.0,41.1,30.08,SSE,158,0.0,0.0,83,0.00,,---,0.00,VWS V14.01,2013-10-12 10:22:00,
2013-10-12 06:27:00,46.0,41.1,30.08,SSE,158,0.0,0.0,83,0.00,,---,0.00,VWS V14.01,2013-10-12 10:27:00,
2013-10-12 06:32:00,46.0,41.1,30.08,SSE,158,0.0,0.0,83,0.00,,---,0.00,VWS V14.01,2013-10-12 10:32:00,
2013-10-12 06:37:00,46.0,41.1,30.08,SSE,158,0.0,0.0,83,0.00,,---,0.00,VWS V14.01,2013-10-12 10:37:00,
2013-10-12 06:42:00,46.0,41.1,30.08,SSE,158,0.0,0.0,83,0.00,,---,0.00,VWS V14.01,2013-10-12 10:42:00,
2013-10-12 06:47:00,46.0,41.1,30.08,SSE,158,0.0,0.0,83,0.00,,---,0.00,VWS V14.01,2013-10-12 10:47:00,
2013-10-12 06:52:00,46.0,41.1,30.08,SSE,158,0.0,0.0,83,0.00,,---,0.00,VWS V14.01,2013-10-12 10:52:00,
2013-10-12 06:57:00,46.0,41.1,30.08,SSE,158,0.0,0.0,83,0.00,,---,0.00,VWS V14.01,2013-10-12 10:57:00,
2013-10-12 07:02:00,46.0,41.1,30.08,SSE,158,0.0,0.0,83,0.00,,---,0.00,VWS V14.01,2013-10-12 11:02:00,
2013-10-12 07:07:00,46.0,41.1,30.08,SSE,158,0.0,0.0,83,0.00,,---,0.00,VWS V14.01,2013-10-12 11:07:00,
2013-10-12 07:12:00,45.6,40.7,30.08,SSE,158,0.0,0.0,83,0.00,,---,0.00,VWS V14.01,2013-10-12 11:12:00,
2013-10-12 07:17:00,45.6,40.7,30.08,SSE,158,0.0,0.0,83,0.00,,---,0.00,VWS V14.01,2013-10-12 11:17:00,
2013-10-12 07:22:00,45.6,40.7,30.08,SSE,158,0.0,0.0,83,0.00,,---,0.00,VWS V14.01,2013-10-12 11:22:00,
2013-10-12 07:27:00,45.6,40.7,30.08,SSE,158,0.0,0.0,83,0.00,,---,0.00,VWS V14.01,2013-10-12 11:27:00,
2013-10-12 07:32:00,45.6,41.0,30.09,SSE,158,0.0,0.0,84,0.00,,---,0.00,VWS V14.01,2013-10-12 11:32:00,
2013-10-12 07:37:00,45.5,41.0,30.09,SSE,158,0.0,0.0,84,0.00,,---,0.00,VWS V14.01,2013-10-12 11:37:00,
2013-10-12 07:42:00,45.5,41.0,30.09,SSE,158,0.0,0.0,84,0.00,,---,0.00,VWS V14.01,2013-10-12 11:42:00,
2013-10-12 07:47:00,45.3,40.8,30.09,SSE,158,0.0,0.0,84,0.00,,---,0.00,VWS V14.01,2013-10-12 11:47:00,
2013-10-12 07:52:00,45.3,40.8,30.08,SSE,158,0.0,0.0,84,0.00,,---,0.00,VWS V14.01,2013-10-12 11:52:00,
2013-10-12 07:57:00,45.3,40.8,30.08,SSE,158,0.0,0.0,84,0.00,,---,0.00,VWS V14.01,2013-10-12 11:57:00,
2013-10-12 08:02:00,45.3,40.8,30.08,SSE,158,0.0,0.0,84,0.00,,---,0.00,VWS V14.01,2013-10-12 12:02:00,
2013-10-12 08:07:00,45.5,41.0,30.08,SSE,158,0.0,0.0,84,0.00,,---,0.00,VWS V14.01,2013-10-12 12:07:00,
2013-10-12 08:12:00,45.5,41.0,30.08,SSE,158,0.0,0.0,84,0.00,,---,0.00,VWS V14.01,2013-10-12 12:12:00,
2013-10-12 08:17:00,45.6,41.0,30.08,SSE,158,0.0,0.0,84,0.00,,---,0.00,VWS V14.01,2013-10-12 12:17:00,
2013-10-12 08:22:00,45.6,41.0,30.08,SSE,158,0.0,0.0,84,0.00,,---,0.00,VWS V14.01,2013-10-12 12:22:00,
2013-10-12 08:27:00,45.6,41.0,30.08,SSE,158,0.0,0.0,84,0.00,,---,0.00,VWS V14.01,2013-10-12 12:27:00,
2013-10-12 08:32:00,46.0,41.4,30.08,SSE,158,0.0,0.0,84,0.00,,---,0.00,VWS V14.01,2013-10-12 12:32:00,
2013-10-12 08:37:00,46.0,41.8,30.08,SSE,158,0.0,0.0,85,0.00,,---,0.00,VWS V14.01,2013-10-12 12:37:00,
2013-10-12 08:42:00,46.2,42.0,30.08,SSE,158,0.0,0.0,85,0.00,,---,0.00,VWS V14.01,2013-10-12 12:42:00,
2013-10-12 08:47:00,46.5,42.2,30.08,SSE,158,0.0,0.0,85,0.00,,---,0.00,VWS V14.01,2013-10-12 12:47:00,
2013-10-12 08:52:00,46.9,42.6,30.08,SSE,158,0.0,0.0,85,0.00,,---,0.00,VWS V14.01,2013-10-12 12:52:00,
2013-10-12 08:57:00,47.3,43.0,30.08,ENE,68,0.0,0.0,85,0.00,,---,0.00,VWS V14.01,2013-10-12 12:57:00,
2013-10-12 09:02:00,47.6,43.3,30.08,SE,135,0.0,0.0,85,0.00,,---,0.00,VWS V14.01,2013-10-12 13:02:00,
2013-10-12 09:07:00,48.0,43.7,30.08,SE,135,0.0,0.0,85,0.00,,---,0.00,VWS V14.01,2013-10-12 13:07:00,
2013-10-12 09:12:00,48.9,44.9,30.08,SSE,158,0.0,0.0,86,0.00,,---,0.00,VWS V14.01,2013-10-12 13:12:00,
2013-10-12 09:17:00,49.6,45.6,30.08,South,180,0.0,0.0,86,0.00,,---,0.00,VWS V14.01,2013-10-12 13:17:00,
2013-10-12 09:22:00,50.5,46.8,30.08,South,180,0.0,0.0,87,0.00,,---,0.00,VWS V14.01,2013-10-12 13:22:00,
2013-10-12 09:27:00,51.6,47.9,30.08,SSE,158,0.0,0.0,87,0.00,,---,0.00,VWS V14.01,2013-10-12 13:27:00,
2013-10-12 09:32:00,52.3,48.5,30.08,SSE,158,0.0,0.0,87,0.00,,---,0.00,VWS V14.01,2013-10-12 13:32:00,
2013-10-12 09:37:00,52.8,49.3,30.08,South,180,0.0,0.0,88,0.00,,---,0.00,VWS V14.01,2013-10-12 13:37:00,
2013-10-12 09:42:00,53.7,50.2,30.08,SSE,158,0.0,0.0,88,0.00,,---,0.00,VWS V14.01,2013-10-12 13:42:00,
2013-10-12 09:47:00,54.3,50.5,30.08,SSE,158,0.0,0.0,87,0.00,,---,0.00,VWS V14.01,2013-10-12 13:47:00,
2013-10-12 09:52:00,54.8,51.0,30.08,SE,135,4.2,4.2,87,0.00,,---,0.00,VWS V14.01,2013-10-12 13:52:00,
2013-10-12 09:57:00,55.5,51.7,30.07,South,180,0.0,0.0,87,0.00,,---,0.00,VWS V14.01,2013-10-12 13:57:00,
2013-10-12 10:02:00,55.9,52.1,30.07,South,180,0.0,0.0,87,0.00,,---,0.00,VWS V14.01,2013-10-12 14:02:00,
2013-10-12 10:07:00,56.3,52.5,30.07,South,180,0.0,0.0,87,0.00,,---,0.00,VWS V14.01,2013-10-12 14:07:00,
2013-10-12 10:12:00,57.0,52.9,30.07,SSW,202,0.0,0.0,86,0.00,,---,0.00,VWS V14.01,2013-10-12 14:12:00,
2013-10-12 10:17:00,57.5,53.3,30.07,SW,225,0.0,0.0,86,0.00,,---,0.00,VWS V14.01,2013-10-12 14:17:00,
2013-10-12 10:22:00,58.1,53.6,30.07,SSE,158,3.1,3.1,85,0.00,,---,0.00,VWS V14.01,2013-10-12 14:22:00,
2013-10-12 10:27:00,58.8,53.7,30.07,SSE,158,0.0,0.0,83,0.00,,---,0.00,VWS V14.01,2013-10-12 14:27:00,
2013-10-12 10:32:00,59.5,54.0,30.07,SSW,202,0.0,0.0,82,0.00,,---,0.00,VWS V14.01,2013-10-12 14:32:00,
2013-10-12 10:37:00,60.0,53.8,30.07,SW,225,0.0,0.0,80,0.00,,---,0.00,VWS V14.01,2013-10-12 14:37:00,
2013-10-12 10:42:00,61.1,53.8,30.07,SW,225,0.0,0.0,77,0.00,,---,0.00,VWS V14.01,2013-10-12 14:42:00,
2013-10-12 10:47:00,61.7,54.4,30.07,SSW,202,0.0,0.0,77,0.00,,---,0.00,VWS V14.01,2013-10-12 14:47:00,
2013-10-12 10:52:00,62.2,54.5,30.06,SW,225,0.0,0.0,76,0.00,,---,0.00,VWS V14.01,2013-10-12 14:52:00,
2013-10-12 10:57:00,62.9,54.5,30.06,SSW,202,3.8,6.9,74,0.00,,---,0.00,VWS V14.01,2013-10-12 14:57:00,
2013-10-12 11:02:00,63.3,54.5,30.06,SW,225,2.6,2.6,73,0.00,,---,0.00,VWS V14.01,2013-10-12 15:02:00,
2013-10-12 11:07:00,63.6,54.8,30.06,West,270,0.0,0.0,73,0.00,,---,0.00,VWS V14.01,2013-10-12 15:07:00,
2013-10-12 11:12:00,64.2,55.0,30.06,SSE,158,0.0,0.0,72,0.00,,---,0.00,VWS V14.01,2013-10-12 15:12:00,
2013-10-12 11:17:00,64.7,55.1,30.06,South,180,0.0,0.0,71,0.00,,---,0.00,VWS V14.01,2013-10-12 15:17:00,
2013-10-12 11:22:00,65.1,55.1,30.06,SW,225,0.0,0.0,70,0.00,,---,0.00,VWS V14.01,2013-10-12 15:22:00,
2013-10-12 11:27:00,65.8,55.0,30.06,SSW,202,0.0,0.0,68,0.00,,---,0.00,VWS V14.01,2013-10-12 15:27:00,
2013-10-12 11:32:00,66.0,54.7,30.06,South,180,0.0,0.0,67,0.00,,---,0.00,VWS V14.01,2013-10-12 15:32:00,
2013-10-12 11:37:00,66.2,54.9,30.06,SSE,158,5.5,5.5,67,0.00,,---,0.00,VWS V14.01,2013-10-12 15:37:00,
2013-10-12 11:42:00,66.7,55.8,30.06,South,180,0.0,0.0,68,0.00,,---,0.00,VWS V14.01,2013-10-12 15:42:00,
2013-10-12 11:47:00,66.9,55.2,30.06,SSE,158,7.3,7.3,66,0.00,,---,0.00,VWS V14.01,2013-10-12 15:47:00,
2013-10-12 11:52:00,67.2,55.5,30.06,South,180,0.0,0.0,66,0.00,,---,0.00,VWS V14.01,2013-10-12 15:52:00,
2013-10-12 11:58:00,67.8,55.2,30.05,SW,225,0.0,0.0,64,0.00,,---,0.00,VWS V14.01,2013-10-12 15:58:00,
2013-10-12 12:03:00,68.0,55.4,30.06,SW,225,0.0,0.0,64,0.00,,---,0.00,VWS V14.01,2013-10-12 16:03:00,
2013-10-12 12:08:00,68.5,55.9,30.06,South,180,0.0,0.0,64,0.00,,---,0.00,VWS V14.01,2013-10-12 16:08:00,
2013-10-12 12:13:00,68.7,56.0,30.06,SSW,202,0.0,0.0,64,0.00,,---,0.00,VWS V14.01,2013-10-12 16:13:00,
2013-10-12 12:18:00,69.2,55.2,30.06,SSW,202,0.0,0.0,61,0.00,,---,0.00,VWS V14.01,2013-10-12 16:18:00,
2013-10-12 12:23:00,69.6,55.1,30.06,SSW,202,1.5,4.2,60,0.00,,---,0.00,VWS V14.01,2013-10-12 16:23:00,
2013-10-12 12:28:00,69.6,55.1,30.05,WSW,248,0.0,0.0,60,0.00,,---,0.00,VWS V14.01,2013-10-12 16:28:00,
2013-10-12 12:33:00,69.9,54.9,30.05,WSW,248,0.0,0.0,59,0.00,,---,0.00,VWS V14.01,2013-10-12 16:33:00,
2013-10-12 12:38:00,70.3,54.8,30.05,West,270,0.0,3.8,58,0.00,,---,0.00,VWS V14.01,2013-10-12 16:38:00,
2013-10-12 12:43:00,70.7,54.2,30.05,SW,225,0.0,0.0,56,0.00,,---,0.00,VWS V14.01,2013-10-12 16:43:00,
2013-10-12 12:48:00,70.8,54.3,30.04,SSW,202,2.4,2.4,56,0.00,,---,0.00,VWS V14.01,2013-10-12 16:48:00,
2013-10-12 12:53:00,71.4,54.9,30.04,SSE,158,4.2,4.2,56,0.00,,---,0.00,VWS V14.01,2013-10-12 16:53:00,
2013-10-12 12:58:00,71.9,54.4,30.04,WSW,248,4.6,4.6,54,0.00,,---,0.00,VWS V14.01,2013-10-12 16:58:00,
2013-10-12 13:03:00,72.3,54.2,30.05,SW,225,3.1,3.1,53,0.00,,---,0.00,VWS V14.01,2013-10-12 17:03:00,
2013-10-12 13:08:00,72.5,54.9,30.04,South,180,0.0,0.0,54,0.00,,---,0.00,VWS V14.01,2013-10-12 17:08:00,
2013-10-12 13:13:00,72.6,55.0,30.04,South,180,0.0,0.0,54,0.00,,---,0.00,VWS V14.01,2013-10-12 17:13:00,
2013-10-12 13:18:00,73.2,55.1,30.03,SSE,158,0.0,0.0,53,0.00,,---,0.00,VWS V14.01,2013-10-12 17:18:00,
2013-10-12 13:23:00,73.5,54.3,30.03,SW,225,1.5,1.5,51,0.00,,---,0.00,VWS V14.01,2013-10-12 17:23:00,
2013-10-12 13:28:00,73.7,54.5,30.03,South,180,0.0,0.0,51,0.00,,---,0.00,VWS V14.01,2013-10-12 17:28:00,
2013-10-12 13:33:00,73.9,54.1,30.03,SW,225,0.0,0.0,50,0.00,,---,0.00,VWS V14.01,2013-10-12 17:33:00,
2013-10-12 13:38:00,73.9,54.1,30.02,SW,225,0.0,8.0,50,0.00,,---,0.00,VWS V14.01,2013-10-12 17:38:00,
2013-10-12 13:43:00,74.1,54.3,30.02,South,180,0.0,0.0,50,0.00,,---,0.00,VWS V14.01,2013-10-12 17:43:00,
2013-10-12 13:48:00,74.4,54.6,30.02,SW,225,0.0,0.0,50,0.00,,---,0.00,VWS V14.01,2013-10-12 17:48:00,
2013-10-12 13:53:00,74.8,54.4,30.02,NE,45,0.0,0.0,49,0.00,,---,0.00,VWS V14.01,2013-10-12 17:53:00,
2013-10-12 13:58:00,75.0,54.6,30.01,South,180,0.0,0.0,49,0.00,,---,0.00,VWS V14.01,2013-10-12 17:58:00,
2013-10-12 14:03:00,75.3,54.3,30.01,SSW,202,0.0,0.0,48,0.00,,---,0.00,VWS V14.01,2013-10-12 18:03:00,
2013-10-12 14:08:00,75.5,54.5,30.01,SW,225,0.0,0.0,48,0.00,,---,0.00,VWS V14.01,2013-10-12 18:08:00,
2013-10-12 14:13:00,75.7,54.6,30.01,SW,225,0.0,0.0,48,0.00,,---,0.00,VWS V14.01,2013-10-12 18:13:00,
2013-10-12 14:18:00,76.1,53.8,30.01,SE,135,0.0,0.0,46,0.00,,---,0.00,VWS V14.01,2013-10-12 18:18:00,
2013-10-12 14:23:00,75.9,54.2,30.00,West,270,0.0,0.0,47,0.00,,---,0.00,VWS V14.01,2013-10-12 18:23:00,
2013-10-12 14:28:00,76.1,54.4,30.01,SE,135,0.0,0.0,47,0.00,,---,0.00,VWS V14.01,2013-10-12 18:28:00,
2013-10-12 14:33:00,76.2,53.9,30.00,SSE,158,0.0,0.0,46,0.00,,---,0.00,VWS V14.01,2013-10-12 18:33:00,
2013-10-12 14:38:00,76.4,53.5,30.00,ESE,112,2.4,2.4,45,0.00,,---,0.00,VWS V14.01,2013-10-12 18:38:00,
2013-10-12 14:43:00,76.4,53.5,30.00,SE,135,0.0,0.0,45,0.00,,---,0.00,VWS V14.01,2013-10-12 18:43:00,
2013-10-12 14:48:00,76.6,53.7,30.00,SSE,158,0.0,0.0,45,0.00,,---,0.00,VWS V14.01,2013-10-12 18:48:00,
2013-10-12 14:53:00,76.6,53.7,30.00,SE,135,0.0,0.0,45,0.00,,---,0.00,VWS V14.01,2013-10-12 18:53:00,
2013-10-12 14:58:00,76.8,53.9,30.00,South,180,2.9,2.9,45,0.00,,---,0.00,VWS V14.01,2013-10-12 18:58:00,
2013-10-12 15:03:00,77.0,54.1,30.00,SSE,158,0.0,2.4,45,0.00,,---,0.00,VWS V14.01,2013-10-12 19:03:00,
2013-10-12 15:08:00,77.1,54.8,30.00,South,180,6.4,6.4,46,0.00,,---,0.00,VWS V14.01,2013-10-12 19:08:00,
2013-10-12 15:13:00,77.1,54.8,30.00,SSE,158,0.0,0.0,46,0.00,,---,0.00,VWS V14.01,2013-10-12 19:13:00,
2013-10-12 15:18:00,77.3,54.9,30.00,SSW,202,0.0,0.0,46,0.00,,---,0.00,VWS V14.01,2013-10-12 19:18:00,
2013-10-12 15:23:00,77.5,54.5,30.00,SSE,158,6.4,6.4,45,0.00,,---,0.00,VWS V14.01,2013-10-12 19:23:00,
2013-10-12 15:28:00,77.5,55.1,30.00,South,180,7.8,7.8,46,0.00,,---,0.00,VWS V14.01,2013-10-12 19:28:00,
2013-10-12 15:34:00,77.5,55.7,30.00,South,180,0.0,0.0,47,0.00,,---,0.00,VWS V14.01,2013-10-12 19:34:00,
2013-10-12 15:39:00,77.7,56.5,30.00,SW,225,2.9,8.5,48,0.00,,---,0.00,VWS V14.01,2013-10-12 19:39:00,
2013-10-12 15:44:00,77.7,56.5,30.00,SSW,202,0.0,5.5,48,0.00,,---,0.00,VWS V14.01,2013-10-12 19:44:00,
2013-10-12 15:49:00,77.9,57.2,30.00,SW,225,7.6,7.6,49,0.00,,---,0.00,VWS V14.01,2013-10-12 19:49:00,
2013-10-12 15:54:00,77.9,57.8,30.00,SSW,202,0.0,3.8,50,0.00,,---,0.00,VWS V14.01,2013-10-12 19:54:00,
2013-10-12 15:59:00,77.9,58.3,30.00,SSE,158,1.3,3.3,51,0.00,,---,0.00,VWS V14.01,2013-10-12 19:59:00,
2013-10-12 16:04:00,77.7,58.2,30.00,SSW,202,0.0,0.0,51,0.00,,---,0.00,VWS V14.01,2013-10-12 20:04:00,
2013-10-12 16:09:00,77.7,58.7,30.00,SW,225,0.0,0.0,52,0.00,,---,0.00,VWS V14.01,2013-10-12 20:09:00,
2013-10-12 16:14:00,77.7,59.2,29.99,SSE,158,3.3,8.0,53,0.00,,---,0.00,VWS V14.01,2013-10-12 20:14:00,
2013-10-12 16:19:00,77.9,58.9,29.99,SSE,158,0.0,0.0,52,0.00,,---,0.00,VWS V14.01,2013-10-12 20:19:00,
2013-10-12 16:24:00,77.9,59.4,29.99,SSE,158,0.0,0.0,53,0.00,,---,0.00,VWS V14.01,2013-10-12 20:24:00,
2013-10-12 16:29:00,78.0,59.5,29.99,SW,225,0.0,0.0,53,0.00,,---,0.00,VWS V14.01,2013-10-12 20:29:00,
2013-10-12 16:34:00,78.0,59.5,29.99,SSW,202,3.3,3.3,53,0.00,,---,0.00,VWS V14.01,2013-10-12 20:34:00,
2013-10-12 16:39:00,78.0,59.5,29.99,SSW,202,0.0,2.0,53,0.00,,---,0.00,VWS V14.01,2013-10-12 20:39:00,
2013-10-12 16:44:00,77.9,59.4,29.99,SW,225,0.0,5.1,53,0.00,,---,0.00,VWS V14.01,2013-10-12 20:44:00,
2013-10-12 16:49:00,77.5,59.0,29.99,SW,225,0.0,0.0,53,0.00,,---,0.00,VWS V14.01,2013-10-12 20:49:00,
2013-10-12 16:54:00,77.5,59.0,29.99,South,180,2.4,2.6,53,0.00,,---,0.00,VWS V14.01,2013-10-12 20:54:00,
2013-10-12 16:59:00,77.5,59.6,29.99,SSE,158,0.0,0.0,54,0.00,,---,0.00,VWS V14.01,2013-10-12 20:59:00,
2013-10-12 17:04:00,77.5,59.6,29.99,SSW,202,0.0,0.0,54,0.00,,---,0.00,VWS V14.01,2013-10-12 21:04:00,
2013-10-12 17:09:00,77.5,59.0,29.99,SSE,158,5.5,5.5,53,0.00,,---,0.00,VWS V14.01,2013-10-12 21:09:00,
2013-10-12 17:14:00,77.3,58.8,29.98,SSE,158,2.0,2.0,53,0.00,,---,0.00,VWS V14.01,2013-10-12 21:14:00,
2013-10-12 17:19:00,77.1,59.2,29.99,South,180,2.6,2.6,54,0.00,,---,0.00,VWS V14.01,2013-10-12 21:19:00,
2013-10-12 17:24:00,76.8,58.9,29.99,South,180,2.4,2.4,54,0.00,,---,0.00,VWS V14.01,2013-10-12 21:24:00,
2013-10-12 17:29:00,77.1,59.2,29.99,SSE,158,3.8,3.8,54,0.00,,---,0.00,VWS V14.01,2013-10-12 21:29:00,
2013-10-12 17:34:00,77.0,58.6,29.99,South,180,0.0,0.0,53,0.00,,---,0.00,VWS V14.01,2013-10-12 21:34:00,
2013-10-12 17:39:00,76.4,58.5,29.99,SSE,158,0.0,0.0,54,0.00,,---,0.00,VWS V14.01,2013-10-12 21:39:00,
2013-10-12 17:44:00,75.9,58.1,29.99,SSW,202,7.8,7.8,54,0.00,,---,0.00,VWS V14.01,2013-10-12 21:44:00,
2013-10-12 17:49:00,75.5,57.7,29.99,South,180,0.0,0.0,54,0.00,,---,0.00,VWS V14.01,2013-10-12 21:49:00,
2013-10-12 17:54:00,75.0,57.2,29.99,South,180,0.0,0.0,54,0.00,,---,0.00,VWS V14.01,2013-10-12 21:54:00,
2013-10-12 17:59:00,74.8,57.6,29.99,SSW,202,0.0,0.0,55,0.00,,---,0.00,VWS V14.01,2013-10-12 21:59:00,
2013-10-12 18:04:00,74.4,57.2,29.99,SSE,158,0.0,0.0,55,0.00,,---,0.00,VWS V14.01,2013-10-12 22:04:00,
2013-10-12 18:09:00,74.3,57.1,30.00,South,180,0.0,1.7,55,0.00,,---,0.00,VWS V14.01,2013-10-12 22:09:00,
2013-10-12 18:14:00,74.1,56.9,30.00,South,180,1.3,1.3,55,0.00,,---,0.00,VWS V14.01,2013-10-12 22:14:00,
2013-10-12 18:19:00,74.1,56.9,30.00,SSE,158,0.0,0.0,55,0.00,,---,0.00,VWS V14.01,2013-10-12 22:19:00,
2013-10-12 18:24:00,73.5,56.4,30.00,SSW,202,0.0,0.0,55,0.00,,---,0.00,VWS V14.01,2013-10-12 22:24:00,
2013-10-12 18:29:00,73.4,56.3,30.00,SSE,158,0.0,0.0,55,0.00,,---,0.00,VWS V14.01,2013-10-12 22:29:00,
2013-10-12 18:34:00,73.2,56.1,29.99,South,180,6.2,6.2,55,0.00,,---,0.00,VWS V14.01,2013-10-12 22:34:00,
2013-10-12 18:39:00,73.0,55.9,30.00,South,180,0.0,0.0,55,0.00,,---,0.00,VWS V14.01,2013-10-12 22:39:00,
2013-10-12 18:44:00,72.6,56.0,30.00,South,180,0.0,0.0,56,0.00,,---,0.00,VWS V14.01,2013-10-12 22:44:00,
2013-10-12 18:49:00,72.5,55.9,30.00,South,180,0.0,0.0,56,0.00,,---,0.00,VWS V14.01,2013-10-12 22:49:00,
2013-10-12 18:54:00,72.3,55.7,30.00,SSE,158,3.8,3.8,56,0.00,,---,0.00,VWS V14.01,2013-10-12 22:54:00,
2013-10-12 18:59:00,72.1,55.6,30.01,SSE,158,0.0,0.0,56,0.00,,---,0.00,VWS V14.01,2013-10-12 22:59:00,
2013-10-12 19:04:00,71.9,55.4,30.00,South,180,0.0,0.0,56,0.00,,---,0.00,VWS V14.01,2013-10-12 23:04:00,
2013-10-12 19:09:00,71.4,55.4,30.01,South,180,0.0,0.0,57,0.00,,---,0.00,VWS V14.01,2013-10-12 23:09:00,
2013-10-12 19:14:00,71.4,55.4,30.01,SSE,158,0.0,0.0,57,0.00,,---,0.00,VWS V14.01,2013-10-12 23:14:00,
2013-10-12 19:19:00,71.2,55.2,30.01,SSE,158,0.0,0.0,57,0.00,,---,0.00,VWS V14.01,2013-10-12 23:19:00,
2013-10-12 19:24:00,70.8,55.3,30.01,South,180,0.0,0.0,58,0.00,,---,0.00,VWS V14.01,2013-10-12 23:24:00,
2013-10-12 19:29:00,70.8,55.3,30.01,SSE,158,0.0,0.0,58,0.00,,---,0.00,VWS V14.01,2013-10-12 23:29:00,
2013-10-12 19:34:00,70.5,55.0,30.02,South,180,0.0,0.0,58,0.00,,---,0.00,VWS V14.01,2013-10-12 23:34:00,
2013-10-12 19:39:00,70.3,55.3,30.02,South,180,0.0,0.0,59,0.00,,---,0.00,VWS V14.01,2013-10-12 23:39:00,
2013-10-12 19:44:00,70.3,54.8,30.02,SSE,158,0.0,0.0,58,0.00,,---,0.00,VWS V14.01,2013-10-12 23:44:00,
2013-10-12 19:49:00,70.1,55.1,30.02,SSE,158,0.0,0.0,59,0.00,,---,0.00,VWS V14.01,2013-10-12 23:49:00,
2013-10-12 19:54:00,69.8,54.8,30.02,South,180,0.0,0.0,59,0.00,,---,0.00,VWS V14.01,2013-10-12 23:54:00,
2013-10-12 19:59:00,69.6,55.1,30.02,SSE,158,0.0,0.0,60,0.00,,---,0.00,VWS V14.01,2013-10-12 23:59:00,
2013-10-12 20:04:00,69.6,55.1,30.02,SSE,158,0.0,0.0,60,0.00,,---,0.00,VWS V14.01,2013-10-13 00:04:00,
2013-10-12 20:09:00,69.4,54.9,30.02,SSE,158,0.0,0.0,60,0.00,,---,0.00,VWS V14.01,2013-10-13 00:09:00,
2013-10-12 20:14:00,69.2,54.7,30.02,South,180,0.0,0.0,60,0.00,,---,0.00,VWS V14.01,2013-10-13 00:14:00,
2013-10-12 20:19:00,69.0,54.5,30.02,SSE,158,0.0,0.0,60,0.00,,---,0.00,VWS V14.01,2013-10-13 00:19:00,
2013-10-12 20:24:00,68.9,54.0,30.02,SSE,158,0.0,0.0,59,0.00,,---,0.00,VWS V14.01,2013-10-13 00:24:00,
2013-10-12 20:29:00,68.7,53.8,30.03,SSE,158,0.0,0.0,59,0.00,,---,0.00,VWS V14.01,2013-10-13 00:29:00,
2013-10-12 20:34:00,68.7,53.8,30.02,South,180,0.0,0.0,59,0.00,,---,0.00,VWS V14.01,2013-10-13 00:34:00,
2013-10-12 20:39:00,68.5,53.2,30.02,South,180,0.0,0.0,58,0.00,,---,0.00,VWS V14.01,2013-10-13 00:39:00,
2013-10-12 20:44:00,68.3,53.0,30.02,SSE,158,0.0,0.0,58,0.00,,---,0.00,VWS V14.01,2013-10-13 00:44:00,
2013-10-12 20:49:00,68.3,52.5,30.02,SSE,158,0.0,0.0,57,0.00,,---,0.00,VWS V14.01,2013-10-13 00:49:00,
2013-10-12 20:54:00,68.1,52.3,30.02,SSE,158,0.0,5.1,57,0.00,,---,0.00,VWS V14.01,2013-10-13 00:54:00,
2013-10-12 20:59:00,68.1,52.3,30.02,SSE,158,0.0,0.0,57,0.00,,---,0.00,VWS V14.01,2013-10-13 00:59:00,
2013-10-12 21:04:00,68.1,52.3,30.02,South,180,0.0,0.0,57,0.00,,---,0.00,VWS V14.01,2013-10-13 01:04:00,
2013-10-12 21:09:00,67.8,52.5,30.02,South,180,0.0,0.0,58,0.00,,---,0.00,VWS V14.01,2013-10-13 01:09:00,
2013-10-12 21:14:00,67.8,52.5,30.02,SSW,202,0.0,0.0,58,0.00,,---,0.00,VWS V14.01,2013-10-13 01:14:00,
2013-10-12 21:19:00,67.8,53.0,30.02,South,180,2.4,2.4,59,0.00,,---,0.00,VWS V14.01,2013-10-13 01:19:00,
2013-10-12 21:24:00,67.8,53.0,30.02,South,180,0.0,0.0,59,0.00,,---,0.00,VWS V14.01,2013-10-13 01:24:00,
2013-10-12 21:29:00,67.8,53.4,30.02,SSE,158,0.6,0.6,60,0.00,,---,0.00,VWS V14.01,2013-10-13 01:29:00,
2013-10-12 21:34:00,67.6,53.7,30.03,South,180,2.2,2.2,61,0.00,,---,0.00,VWS V14.01,2013-10-13 01:34:00,
2013-10-12 21:39:00,67.6,53.7,30.03,SSW,202,0.0,0.0,61,0.00,,---,0.00,VWS V14.01,2013-10-13 01:39:00,
2013-10-12 21:44:00,67.2,53.8,30.03,SSE,158,0.0,0.0,62,0.00,,---,0.00,VWS V14.01,2013-10-13 01:44:00,
2013-10-12 21:49:00,67.2,53.8,30.03,SSE,158,0.0,0.0,62,0.00,,---,0.00,VWS V14.01,2013-10-13 01:49:00,
2013-10-12 21:54:00,67.2,54.2,30.03,South,180,0.0,0.0,63,0.00,,---,0.00,VWS V14.01,2013-10-13 01:54:00,
2013-10-12 21:59:00,67.1,54.1,30.03,SSE,158,0.4,0.4,63,0.00,,---,0.00,VWS V14.01,2013-10-13 01:59:00,
2013-10-12 22:04:00,67.1,54.1,30.03,SSW,202,0.0,0.0,63,0.00,,---,0.00,VWS V14.01,2013-10-13 02:04:00,
2013-10-12 22:07:00,66.9,54.3,30.03,South,180,0.0,0.0,64,0.00,,---,0.00,VWS V14.01,2013-10-13 02:07:00,
2013-10-12 22:12:00,66.7,54.2,30.03,South,180,0.0,0.0,64,0.00,,---,0.00,VWS V14.01,2013-10-13 02:12:00,
2013-10-12 22:17:00,66.7,54.6,30.03,SSE,158,0.0,0.0,65,0.00,,---,0.00,VWS V14.01,2013-10-13 02:17:00,
2013-10-12 22:22:00,66.5,54.4,30.03,SSE,158,0.0,0.0,65,0.00,,---,0.00,VWS V14.01,2013-10-13 02:22:00,
2013-10-12 22:27:00,66.3,54.6,30.04,South,180,0.0,0.0,66,0.00,,---,0.00,VWS V14.01,2013-10-13 02:27:00,
2013-10-12 22:32:00,66.2,54.5,30.04,SSE,158,0.0,0.0,66,0.00,,---,0.00,VWS V14.01,2013-10-13 02:32:00,
2013-10-12 22:37:00,66.0,54.7,30.04,SSE,158,0.0,0.0,67,0.00,,---,0.00,VWS V14.01,2013-10-13 02:37:00,
2013-10-12 22:42:00,66.0,54.7,30.04,South,180,0.0,0.0,67,0.00,,---,0.00,VWS V14.01,2013-10-13 02:42:00,
2013-10-12 22:47:00,65.8,55.0,30.06,WSW,248,3.3,3.3,68,0.00,,---,0.00,VWS V14.01,2013-10-13 02:47:00,
2013-10-12 22:52:00,65.8,54.5,30.05,West,270,5.5,5.5,67,0.00,,---,0.00,VWS V14.01,2013-10-13 02:52:00,
2013-10-12 22:57:00,65.6,54.4,30.06,WSW,248,10.9,10.9,67,0.00,,---,0.00,VWS V14.01,2013-10-13 02:57:00,
2013-10-12 23:02:00,65.6,54.4,30.06,WSW,248,0.0,8.0,67,0.00,,---,0.00,VWS V14.01,2013-10-13 03:02:00,
2013-10-12 23:07:00,65.4,54.2,30.06,SW,225,0.0,0.0,67,0.00,,---,0.00,VWS V14.01,2013-10-13 03:07:00,
2013-10-12 23:12:00,65.4,53.8,30.06,SW,225,0.0,0.0,66,0.00,,---,0.00,VWS V14.01,2013-10-13 03:12:00,
2013-10-12 23:17:00,65.4,53.8,30.06,SSW,202,0.0,0.0,66,0.00,,---,0.00,VWS V14.01,2013-10-13 03:17:00,
2013-10-12 23:22:00,65.4,53.8,30.07,SSW,202,0.0,0.0,66,0.00,,---,0.00,VWS V14.01,2013-10-13 03:22:00,
2013-10-12 23:27:00,65.3,53.7,30.06,West,270,0.0,0.0,66,0.00,,---,0.00,VWS V14.01,2013-10-13 03:27:00,
2013-10-12 23:32:00,65.3,53.7,30.06,West,270,0.0,0.0,66,0.00,,---,0.00,VWS V14.01,2013-10-13 03:32:00,
2013-10-12 23:37:00,65.1,53.5,30.05,SW,225,0.0,0.0,66,0.00,,---,0.00,VWS V14.01,2013-10-13 03:37:00,
2013-10-12 23:42:00,65.1,53.5,30.05,SSW,202,0.0,0.0,66,0.00,,---,0.00,VWS V14.01,2013-10-13 03:42:00,
2013-10-12 23:47:00,64.9,53.3,30.05,SSE,158,0.0,0.0,66,0.00,,---,0.00,VWS V14.01,2013-10-13 03:47:00,
2013-10-12 23:52:00,64.9,53.3,30.05,SSW,202,0.0,0.0,66,0.00,,---,0.00,VWS V14.01,2013-10-13 03:52:00,
2013-10-12 23:57:00,64.9,53.3,30.06,SW,225,0.0,0.0,66,0.00,,---,0.00,VWS V14.01,2013-10-13 03:57:00,